This demonstration page uses our WeatherBlox Daily Observations layout. Learn more.

38.88101, -77.10428

Hourly Observations for April 1, 2018

Temp ( °F °C ) Dew Point ( °F °C ) Humidity (%) Winds ( mph kmh ) Pressure ( in mb ) Visibility ( mi km ) Precip ( " mm )
12:52 am 00:52 Partly Cloudy 51 10.6 31 -0.6 46 46 S 17 28 30.09 1019 10 16.0934 0 0
1:52 am 01:52 Cloudy 50 10 32 0 50 50 S 16 26 30.07 1018 10 16.0934 0 0
2:52 am 02:52 Cloudy 51 10.6 31 -0.6 46 46 SSW 15 24 30.06 1018 10 16.0934 0 0
3:52 am 03:52 Cloudy 51 10.6 31 -0.6 46 46 S 14 22 30.04 1017 10 16.0934 0 0
4:52 am 04:52 Cloudy 53 11.7 31 -0.6 43 43 SSW 9 15 30.03 1017 10 16.0934 0 0
5:52 am 05:52 Cloudy 53 11.7 31 -0.6 43 43 SW 7 11 30.04 1017 10 16.0934 0 0
6:52 am 06:52 Cloudy 52 11.1 31 -0.6 45 45 S 5 7 30.04 1017 10 16.0934 0 0
7:52 am 07:52 Cloudy 52 11.1 38 3.3 59 59 S 8 13 30.04 1017 10 16.0934 0 0
8:52 am 08:52 Cloudy 53 11.7 36 2.2 52 52 SSW 7 11 30.05 1018 10 16.0934 0 0
9:52 am 09:52 Cloudy 54 12.2 33 0.6 45 45 SSW 7 11 30.05 1018 10 16.0934 0 0
10:52 am 10:52 Mostly Cloudy 56 13.3 34 1.1 44 44 SSW 7 11 30.05 1018 10 16.0934 0 0
11:52 am 11:52 Mostly Cloudy 56 13.3 37 2.8 49 49 S 9 15 30.05 1018 10 16.0934 0 0
12:52 pm 12:52 Cloudy 57 13.9 38 3.3 49 49 S 9 15 30.05 1018 10 16.0934 0 0
1:52 pm 13:52 Cloudy 58 14.4 37 2.8 46 46 S 8 13 30.04 1017 10 16.0934 0 0
2:52 pm 14:52 Mostly Cloudy 60 15.6 38 3.3 44 44 S 8 13 30.03 1017 10 16.0934 0 0
3:52 pm 15:52 Mostly Cloudy 62 16.7 40 4.4 44 44 SSE 9 15 30.02 1017 10 16.0934 0 0
4:52 pm 16:52 Mostly Cloudy 66 18.9 41 5 40 40 WNW 8 13 30.02 1017 10 16.0934 0 0
5:52 pm 17:52 Cloudy 64 17.8 43 6.1 46 46 NNW 15 24 30.03 1017 10 16.0934 0 0
6:52 pm 18:52 Cloudy 61 16.1 40 4.4 46 46 N 13 20 30.04 1017 10 16.0934 0 0
7:52 pm 19:52 Mostly Clear 56 13.3 28 -2.2 34 34 SSE 14 22 30.13 1020 10 16.0934 0 0
8:52 pm 20:52 Cloudy 57 13.9 39 3.9 51 51 N 10 17 30.05 1018 10 16.0934 0 0
9:52 pm 21:52 Mostly Cloudy 55 12.8 38 3.3 53 53 N 9 15 30.05 1018 10 16.0934 0 0
10:52 pm 22:52 Mostly Cloudy 54 12.2 35 1.7 49 49 N 5 7 30.04 1017 10 16.0934 0 0
11:52 pm 23:52 Cloudy 52 11.1 39 3.9 61 61 ESE 5 7 30.01 1016 10 16.0934 0 0

Powered by AerisWeather